Temperature
6 5 5 5 5 5 5 5 5 5 4 4 4 4 4 4 3 3 3 3 3 3 3 2 2 2 2 2 2 2 1 1 1 2 2 2 2 2 2 2 2 2 2
5 5 5 5 5 4 4 4 4 4 4 4 4 4 3 3 3 3 3 3 2 2 2 2 2 2 2 2 1 1 1 1 1 1 2 2 2 2 2 2 2 1 2
5 5 4 4 4 4 4 4 4 4 4 4 3 3 3 3 3 3 2 2 2 2 2 2 2 2 1 1 1 1 1 1 0 0 1 1 1 1 1 1 1 1 1
4 4 4 4 4 4 4 4 4 4 4 3 3 3 3 3 2 2 2 2 2 2 2 1 1 1 1 1 1 1 0 0 0 0 0 0 0 0 0 0 1 1 1
4 4 4 3 3 3 3 3 3 3 3 3 3 3 2 2 2 2 2 2 1 1 1 1 1 1 0 0 0 0 0 -0 -0 -0 -0 -0 -0 -0 -0 -0 -0 0 1
3 3 3 3 3 3 3 3 3 3 3 2 2 2 2 2 2 1 1 1 1 1 1 1 1 0 0 -0 -0 -0 -0 -0 -0 -0 -1 -1 -1 -1 -1 -1 -1 -1 -1
3 3 3 2 2 2 2 2 2 2 2 2 2 2 2 2 1 1 1 1 1 1 0 0 0 0 -0 -0 -0 -1 -1 -1 -1 -1 -1 -1 -1 -1 -1 -1 -1 -1 -1
2 2 2 2 2 2 2 2 2 2 2 2 2 1 1 1 1 0 0 0 0 0 0 0 -0 -0 -0 -1 -1 -1 -1 -1 -1 -1 -1 -1 -1 -1 -1 -2 -2 -2 -1
2 2 2 2 1 1 1 1 1 1 1 1 1 1 1 1 0 -0 -0 -0 -0 -0 -0 -0 -1 -1 -1 -1 -1 -1 -1 -1 -1 -1 -2 -2 -2 -2 -2 -2 -2 -2 -2
2 2 1 1 1 1 1 1 1 1 1 0 0 0 -0 -0 -1 -1 -1 -1 -1 -1 -1 -1 -1 -1 -1 -1 -1 -1 -1 -1 -1 -1 -2 -2 -2 -2 -2 -2 -2 -3 -3
2 1 1 1 1 1 0 0 0 0 0 -0 -0 -0 -1 -1 -1 -1 -1 -2 -2 -2 -1 -1 -1 -1 -1 -1 -2 -2 -2 -2 -2 -2 -2 -2 -2 -2 -2 -3 -3 -3 -3
1 1 1 0 0 0 -0 -0 -0 -1 -1 -1 -1 -1 -1 -1 -1 -2 -2 -2 -2 -2 -2 -2 -2 -2 -2 -2 -2 -2 -2 -2 -2 -2 -2 -2 -2 -2 -3 -3 -3 -3 -3
0 0 0 -0 -0 -1 -1 -1 -1 -1 -1 -1 -1 -1 -1 -2 -2 -2 -2 -2 -2 -2 -2 -2 -2 -2 -2 -2 -2 -2 -2 -2 -3 -3 -3 -3 -3 -3 -3 -3 -3 -3 -3
-0 -0 -1 -1 -1 -1 -1 -1 -1 -2 -2 -2 -2 -2 -2 -2 -2 -2 -3 -3 -3 -3 -3 -3 -3 -3 -3 -3 -3 -3 -3 -3 -3 -3 -3 -3 -3 -3 -3 -3 -3 -3 -3
-1 -1 -1 -1 -1 -1 -2 -2 -2 -2 -2 -2 -2 -2 -2 -2 -2 -3 -3 -3 -3 -3 -3 -3 -3 -3 -3 -3 -3 -3 -3 -3 -3 -3 -3 -3 -3 -3 -3 -3 -3 -3 -3
-1 -1 -2 -2 -2 -2 -2 -2 -2 -2 -2 -3 -3 -3 -3 -3 -3 -3 -3 -3 -3 -3 -3 -3 -3 -3 -3 -3 -3 -3 -3 -4 -4 -4 -4 -4 -4 -4 -3 -3 -4 -4 -4
-1 -2 -2 -2 -2 -3 -3 -3 -3 -3 -3 -3 -3 -3 -3 -3 -3 -3 -3 -3 -4 -3 -3 -4 -4 -3 -3 -3 -3 -4 -4 -4 -4 -4 -4 -4 -4 -4 -4 -4 -4 -4 -4
-2 -2 -2 -3 -3 -3 -3 -3 -3 -3 -3 -3 -3 -3 -3 -4 -3 -3 -3 -4 -4 -4 -4 -4 -4 -4 -4 -4 -4 -4 -4 -4 -4 -4 -4 -4 -4 -4 -4 -4 -4 -4 -4
-2 -3 -3 -3 -3 -3 -3 -4 -4 -4 -4 -4 -4 -3 -4 -4 -4 -4 -4 -4 -4 -4 -4 -4 -4 -4 -4 -4 -4 -4 -4 -4 -4 -4 -4 -4 -4 -4 -4 -4 -4 -4 -4
-3 -3 -3 -3 -4 -4 -4 -4 -4 -4 -4 -4 -4 -4 -4 -4 -4 -4 -4 -4 -4 -4 -4 -4 -4 -4 -4 -4 -4 -4 -4 -4 -4 -4 -4 -5 -5 -5 -5 -5 -5 -5 -5
-3 -3 -3 -4 -4 -4 -4 -4 -4 -4 -4 -4 -4 -4 -4 -4 -4 -4 -4 -4 -5 -5 -5 -5 -5 -5 -5 -5 -5 -5 -5 -5 -5 -5 -5 -5 -5 -5 -5 -5 -5 -5 -5
-4 -4 -4 -4 -4 -4 -4 -4 -4 -4 -4 -4 -4 -4 -4 -5 -5 -4 -4 -5 -5 -5 -5 -5 -5 -5 -5 -5 -5 -5 -5 -5 -5 -5 -5 -5 -5 -5 -5 -5 -5 -5 -5
-4 -4 -4 -4 -4 -5 -5 -4 -4 -5 -5 -5 -5 -5 -5 -5 -5 -5 -5 -5 -5 -5 -5 -5 -5 -5 -5 -5 -5 -5 -5 -5 -5 -5 -5 -5 -5 -5 -5 -5 -5 -5 -6
-4 -4 -5 -5 -5 -5 -5 -5 -5 -5 -5 -5 -5 -5 -5 -5 -5 -5 -5 -5 -5 -5 -5 -5 -5 -5 -5 -5 -6 -6 -6 -6 -6 -6 -5 -5 -5 -5 -6 -6 -6 -6 -6
-5 -5 -5 -5 -5 -5 -5 -5 -5 -5 -5 -5 -5 -5 -5 -6 -6 -5 -5 -5 -5 -5 -5 -5 -5 -6 -6 -6 -6 -6 -6 -6 -6 -6 -6 -6 -6 -6 -6 -6 -6 -6 -6
-5 -5 -5 -5 -5 -5 -5 -5 -5 -5 -5 -5 -6 -6 -6 -6 -6 -6 -6 -6 -6 -5 -5 -5 -5 -6 -6 -6 -6 -6 -6 -6 -6 -6 -6 -6 -6 -6 -6 -6 -6 -6 -6
Wind_Speed
5 4 4 4 4 4 4 5 5 4 5 5 5 5 4 4 4 4 4 4 4 4 4 4 4 4 3 3 3 3 3 3 6 5 3 3 3 3 5 6 7 7 8
5 5 4 4 4 4 4 4 5 5 5 5 5 4 5 5 4 5 5 5 5 5 5 4 5 4 4 3 3 4 4 4 5 7 5 3 3 3 3 4 5 6 7
4 4 4 4 4 4 4 4 4 4 4 4 4 5 5 5 5 5 5 5 6 6 5 6 6 5 5 4 4 4 4 4 4 5 5 3 3 3 3 4 4 4 6
4 4 4 4 4 4 3 3 3 4 4 4 4 4 5 5 5 5 5 5 5 6 6 6 6 6 6 6 5 5 4 4 4 4 5 3 3 2 2 3 4 4 4
4 4 4 3 3 2 2 2 2 2 3 4 3 3 3 3 4 4 5 5 5 5 5 6 6 7 9 7 6 5 5 4 4 4 4 4 3 2 3 2 4 4 5
4 4 3 3 2 2 2 2 2 2 2 2 3 3 4 4 5 6 5 4 5 5 6 5 6 7 9 10 11 9 7 6 5 5 5 5 5 4 3 3 3 4 4
4 4 3 3 3 2 2 2 2 2 2 2 3 3 4 4 6 6 6 4 4 5 5 5 5 6 7 6 8 9 9 9 8 6 6 7 5 5 4 4 4 4 6
4 4 4 4 3 3 2 3 2 2 2 2 3 3 3 4 6 6 5 4 4 5 5 5 5 5 5 5 5 5 6 6 7 7 7 7 5 4 5 5 5 5 5
5 5 4 4 4 3 3 3 2 2 2 2 3 3 3 5 6 6 4 2 3 4 4 4 5 5 8 7 5 5 5 5 6 8 8 7 7 7 5 2 2 3 5
6 5 5 4 4 4 4 3 2 2 3 2 3 3 4 4 6 6 4 2 3 3 3 4 6 7 8 8 6 5 6 5 4 3 4 5 5 6 6 4 4 4 4
5 4 4 4 4 4 3 2 2 2 2 2 3 3 4 4 5 6 5 3 3 4 4 4 5 8 9 9 7 6 7 5 3 4 3 3 3 3 4 4 4 4 5
4 4 4 4 4 3 3 3 2 2 2 2 2 3 3 4 5 6 6 6 4 4 4 4 5 7 7 7 6 6 7 5 3 3 3 3 3 3 3 3 4 5 6
4 4 4 4 3 3 4 4 3 3 3 3 3 3 3 3 4 6 7 7 6 4 4 6 6 7 6 5 5 5 4 3 3 3 4 4 4 4 3 3 3 3 4
5 4 4 4 3 3 3 4 4 4 4 4 3 4 3 3 3 3 3 4 5 4 4 5 6 5 4 3 3 3 2 3 3 4 3 3 2 2 2 2 2 2 2
5 4 4 4 4 3 3 4 4 5 5 5 4 4 4 4 5 5 3 3 3 3 2 2 1 2 2 2 2 2 2 2 3 3 3 3 3 3 2 2 2 2 2
5 5 4 3 3 3 3 2 4 4 6 7 6 5 5 7 7 7 6 6 5 3 2 2 2 2 3 3 3 2 2 3 3 3 3 3 3 3 3 2 2 2 3
6 5 4 4 4 3 3 3 2 3 3 5 6 6 6 6 6 6 6 5 4 2 1 2 3 3 3 3 3 3 3 3 3 3 3 3 3 3 2 2 2 2 3
5 5 4 4 4 4 4 3 3 3 3 3 4 5 5 5 4 4 4 2 1 1 1 2 2 3 3 2 2 2 2 2 2 2 3 3 3 3 2 2 2 2 2
5 4 4 3 3 3 3 3 3 3 3 2 2 3 4 4 3 3 2 1 2 2 2 2 2 2 2 2 2 2 2 3 3 3 3 3 3 3 3 2 2 3 2
4 5 5 3 3 3 3 3 3 3 3 2 3 3 2 1 1 2 2 2 2 2 2 2 2 2 2 2 2 2 2 2 2 3 3 3 3 3 3 3 2 2 2
3 4 5 4 3 3 3 3 3 3 3 3 3 3 3 2 2 3 3 2 2 2 2 2 2 2 2 2 2 2 2 2 3 3 3 2 2 2 2 2 2 2 2
3 3 3 3 3 3 3 3 3 3 3 3 2 3 4 2 2 3 3 3 2 2 2 2 2 2 2 2 2 3 3 3 3 3 2 2 2 2 2 2 2 1 1
3 3 3 2 3 3 3 2 3 3 3 3 3 2 2 3 3 3 3 2 2 2 2 2 2 2 2 2 3 3 3 4 3 3 3 2 2 2 2 2 2 2 2
3 3 3 3 2 2 3 3 3 3 3 3 2 2 3 3 3 3 2 2 2 1 1 2 2 3 3 3 3 4 4 4 4 3 3 3 2 2 2 2 2 2 2
3 3 3 3 3 3 3 3 3 3 2 2 2 3 3 2 2 2 2 1 1 1 2 2 2 3 3 4 4 4 4 4 4 3 3 2 2 2 2 2 2 1 1
2 2 2 2 2 2 3 3 3 3 2 2 2 2 2 2 2 2 1 1 1 1 2 2 3 3 3 3 4 4 4 4 3 2 2 2 2 2 2 2 1 1 2
Wind_Direction
189 187 183 191 191 190 199 209 209 206 200 202 204 204 206 213 214 213 221 217 218 228 228 224 235 238 239 242 242 244 244 239 260 276 270 277 269 276 299 296 290 285 285
188 183 185 188 186 192 210 217 207 205 205 204 204 207 209 214 215 217 223 224 222 227 229 228 235 233 235 238 236 242 245 241 251 272 283 280 274 280 288 294 297 295 289
177 177 183 188 191 203 216 218 207 205 209 207 203 210 214 218 219 222 223 225 227 229 228 228 234 226 237 238 235 240 244 250 246 259 275 274 277 288 301 303 301 295 295
175 178 189 197 200 209 214 213 208 203 207 210 215 219 220 224 226 227 227 228 231 233 232 231 233 229 233 233 237 238 238 244 247 255 268 275 272 287 285 301 310 306 303
178 188 200 199 195 194 200 210 210 205 213 213 215 226 231 230 230 228 230 230 233 240 242 240 240 240 239 236 238 233 227 235 240 247 258 271 270 288 284 285 289 301 297
180 193 190 183 185 192 200 201 200 210 218 214 214 222 233 242 247 244 240 236 239 241 246 249 247 246 248 247 246 243 232 232 235 239 250 256 259 258 268 274 286 304 300
181 185 185 182 190 205 210 203 212 222 229 238 236 232 243 257 259 257 252 243 243 243 245 248 254 254 253 244 248 250 248 245 238 237 245 247 248 248 248 262 272 279 276
187 193 194 188 197 206 205 214 224 225 228 241 250 245 253 263 266 267 264 252 247 251 249 243 246 254 248 232 234 244 248 248 246 241 240 247 246 242 234 242 256 272 280
196 200 200 195 198 202 210 221 223 219 239 246 251 250 255 267 264 265 267 250 253 259 257 250 245 249 251 240 233 245 256 256 255 250 252 256 259 259 255 254 272 283 289
205 205 199 194 196 203 211 219 221 220 228 241 258 258 256 261 264 264 265 246 256 267 267 258 251 253 251 242 230 233 247 256 253 260 259 263 258 253 253 234 233 257 280
198 193 193 194 199 201 203 207 207 219 232 245 257 263 260 264 270 269 268 256 246 256 262 266 262 261 258 249 241 233 242 248 239 237 249 256 252 243 241 237 234 236 253
183 188 194 195 197 193 194 206 203 201 218 244 257 275 273 271 274 275 273 268 261 247 257 263 265 267 260 253 250 246 245 245 229 227 241 251 256 258 260 258 258 254 248
180 191 195 193 196 192 195 203 206 203 212 228 237 255 272 278 275 276 275 273 268 261 257 261 267 272 272 260 255 250 244 233 222 230 241 249 251 251 256 268 269 270 271
187 195 193 191 197 198 204 205 208 212 217 225 234 249 262 272 269 268 262 269 272 273 272 267 272 282 280 266 258 257 243 227 223 230 242 251 254 253 253 263 276 288 299
191 195 197 199 198 204 213 216 219 221 220 225 231 235 240 257 261 265 267 260 259 256 261 277 290 283 277 276 264 252 243 236 239 236 241 248 253 256 265 265 264 281 278
194 196 198 200 202 206 213 244 245 241 245 247 248 250 256 262 271 268 270 270 269 253 243 255 261 262 258 259 258 256 245 237 232 236 239 240 244 248 259 264 265 265 272
196 199 198 198 201 207 209 216 246 267 259 253 255 259 265 268 271 272 273 272 262 224 248 256 258 258 259 255 252 251 250 244 236 236 240 241 239 237 242 253 258 266 269
198 201 198 199 202 207 210 215 218 226 251 270 267 264 268 266 268 276 275 272 267 251 262 258 264 266 267 264 259 258 256 249 239 237 241 242 236 233 237 244 249 259 270
196 198 196 198 202 205 205 206 214 223 235 259 292 287 280 276 267 269 250 239 248 264 266 264 263 262 266 267 264 258 253 247 243 239 241 238 230 227 234 239 244 253 261
200 199 191 190 198 202 202 205 210 217 230 244 256 270 284 285 269 276 264 257 250 262 259 262 267 265 263 266 266 258 254 253 250 245 248 237 222 218 229 235 231 239 253
194 195 191 188 196 202 206 208 209 213 224 239 255 259 257 255 250 255 260 258 254 255 256 257 260 263 262 261 262 262 259 261 257 251 249 237 223 222 224 228 233 232 243
184 187 186 186 193 200 202 205 207 212 221 235 262 266 259 263 255 253 258 263 264 254 248 250 259 259 254 252 257 262 260 260 262 256 250 232 223 218 217 217 224 232 232
172 174 176 178 186 195 199 201 205 211 221 232 241 251 256 258 261 262 265 267 265 263 259 252 258 268 274 259 251 253 252 253 254 250 240 230 223 219 216 216 221 228 237
168 172 175 178 181 188 193 200 208 213 220 230 237 244 253 258 261 264 267 270 272 277 273 266 263 264 274 276 272 262 254 252 251 244 226 215 216 215 213 215 222 233 230
166 173 178 181 185 191 195 203 211 215 223 231 237 246 253 256 259 261 263 265 266 277 289 288 278 270 268 271 277 272 265 260 255 237 208 206 204 208 209 204 210 226 218
166 169 174 179 188 194 198 205 212 216 226 232 232 235 244 253 257 254 256 260 261 274 291 291 283 277 275 272 274 275 270 263 253 225 187 183 186 195 194 194 198 202 197
Height
1458 1459 1460 1462 1463 1463 1464 1465 1465 1466 1466 1466 1467 1467 1467 1467 1467 1467 1468 1468 1467 1468 1468 1468 1467 1468 1467 1467 1468 1468 1467 1467 1465 1463 1463 1462 1461 1460 1459 1458 1457 1456 1454
1455 1456 1457 1458 1459 1459 1460 1461 1461 1462 1462 1463 1463 1463 1463 1463 1463 1463 1463 1463 1463 1463 1463 1463 1463 1463 1463 1463 1463 1463 1462 1462 1462 1459 1458 1458 1457 1456 1454 1453 1453 1452 1450
1452 1453 1454 1454 1455 1456 1456 1457 1458 1458 1458 1459 1459 1459 1459 1459 1459 1460 1460 1460 1459 1459 1459 1459 1458 1458 1458 1458 1458 1458 1458 1458 1457 1456 1454 1454 1453 1452 1450 1449 1448 1447 1446
1448 1449 1450 1451 1451 1452 1453 1453 1454 1454 1454 1455 1455 1455 1455 1455 1456 1456 1456 1456 1455 1455 1455 1454 1454 1454 1453 1454 1454 1453 1453 1453 1453 1452 1450 1449 1448 1448 1446 1444 1443 1442 1441
1445 1446 1446 1447 1448 1448 1449 1449 1450 1450 1451 1451 1451 1451 1451 1451 1452 1452 1452 1452 1451 1451 1450 1450 1449 1449 1449 1449 1449 1449 1449 1449 1448 1447 1446 1445 1444 1443 1442 1441 1439 1438 1436
1441 1442 1443 1443 1444 1444 1445 1446 1446 1446 1447 1447 1447 1447 1447 1447 1447 1448 1448 1448 1447 1446 1445 1445 1445 1445 1444 1444 1445 1445 1445 1445 1444 1443 1442 1441 1440 1440 1439 1438 1436 1434 1432
1437 1438 1439 1439 1440 1441 1441 1442 1442 1442 1443 1443 1443 1443 1443 1443 1444 1444 1444 1443 1443 1442 1441 1440 1440 1440 1440 1440 1440 1440 1440 1440 1440 1440 1438 1437 1437 1436 1435 1434 1433 1431 1429
1433 1434 1435 1436 1436 1437 1437 1438 1438 1438 1439 1439 1439 1439 1439 1439 1440 1440 1439 1439 1438 1437 1437 1436 1436 1435 1435 1435 1435 1435 1435 1434 1434 1435 1434 1433 1433 1433 1432 1431 1430 1428 1426
1429 1430 1431 1432 1432 1433 1433 1434 1434 1434 1434 1435 1435 1435 1435 1435 1435 1435 1435 1434 1433 1432 1432 1432 1431 1431 1431 1431 1431 1430 1429 1429 1429 1430 1430 1429 1429 1429 1428 1427 1426 1424 1421
1425 1426 1427 1428 1428 1428 1429 1430 1430 1430 1430 1431 1431 1431 1431 1431 1431 1431 1431 1430 1428 1428 1427 1427 1427 1426 1426 1426 1426 1425 1424 1424 1424 1425 1425 1425 1424 1424 1424 1423 1422 1420 1418
1422 1423 1423 1424 1424 1425 1426 1426 1426 1427 1427 1427 1427 1427 1427 1427 1427 1427 1426 1426 1425 1424 1423 1422 1422 1422 1421 1421 1421 1421 1420 1420 1420 1420 1420 1420 1419 1419 1418 1418 1418 1417 1415
1418 1418 1419 1420 1420 1421 1422 1422 1423 1423 1423 1423 1423 1423 1423 1423 1423 1423 1422 1422 1421 1421 1419 1419 1418 1418 1417 1417 1416 1416 1416 1416 1416 1415 1415 1415 1414 1414 1414 1413 1413 1413 1412
1413 1414 1415 1416 1417 1417 1418 1418 1419 1419 1419 1419 1419 1419 1419 1419 1419 1419 1418 1418 1417 1417 1416 1415 1414 1414 1413 1412 1412 1412 1412 1411 1411 1411 1410 1410 1410 1410 1410 1409 1409 1408 1408
1409 1410 1411 1412 1413 1413 1414 1415 1415 1415 1415 1415 1415 1415 1415 1415 1415 1415 1414 1414 1413 1412 1412 1411 1410 1409 1409 1408 1408 1407 1407 1407 1407 1406 1406 1406 1406 1406 1406 1405 1404 1404 1403
1405 1406 1407 1408 1409 1409 1410 1411 1411 1412 1412 1412 1412 1412 1412 1411 1411 1411 1411 1410 1409 1408 1408 1407 1406 1405 1404 1404 1403 1403 1403 1403 1403 1402 1402 1402 1402 1402 1401 1401 1401 1400 1399
1401 1402 1403 1404 1405 1405 1406 1407 1408 1409 1409 1409 1409 1409 1409 1409 1408 1408 1407 1407 1406 1405 1404 1402 1402 1401 1400 1400 1399 1399 1399 1399 1399 1399 1398 1398 1398 1398 1397 1397 1397 1396 1395
1397 1398 1399 1400 1401 1401 1402 1403 1403 1404 1405 1405 1405 1405 1405 1405 1404 1404 1403 1403 1402 1401 1399 1398 1398 1397 1397 1396 1396 1395 1395 1395 1395 1395 1395 1394 1394 1394 1394 1393 1393 1392 1392
1393 1394 1395 1396 1397 1398 1399 1399 1400 1400 1400 1401 1402 1402 1401 1401 1401 1400 1400 1399 1398 1397 1396 1395 1395 1394 1394 1393 1392 1392 1391 1391 1391 1391 1391 1391 1391 1391 1390 1390 1390 1389 1389
1389 1390 1391 1392 1393 1394 1395 1396 1396 1397 1397 1397 1397 1398 1398 1397 1397 1397 1396 1395 1394 1393 1393 1392 1391 1391 1390 1390 1389 1389 1388 1388 1388 1388 1387 1387 1387 1387 1387 1387 1386 1386 1386
1385 1386 1387 1389 1390 1391 1391 1392 1393 1393 1394 1394 1394 1394 1394 1394 1393 1393 1393 1392 1391 1390 1390 1389 1388 1388 1387 1386 1386 1386 1385 1385 1385 1384 1384 1384 1384 1384 1384 1384 1384 1383 1383
1381 1382 1384 1385 1386 1387 1388 1389 1389 1390 1390 1390 1391 1391 1391 1390 1390 1389 1389 1389 1388 1387 1387 1386 1385 1385 1384 1383 1383 1382 1382 1382 1382 1381 1381 1381 1381 1381 1381 1381 1381 1381 1381
1378 1379 1380 1382 1383 1384 1384 1385 1386 1387 1387 1387 1387 1387 1387 1387 1387 1386 1386 1385 1385 1385 1384 1384 1383 1382 1381 1381 1380 1380 1379 1379 1379 1379 1378 1378 1378 1378 1378 1378 1379 1379 1379
1375 1376 1377 1378 1380 1381 1381 1382 1383 1383 1383 1384 1384 1384 1383 1383 1383 1383 1383 1382 1382 1382 1381 1381 1380 1379 1379 1378 1378 1377 1377 1376 1376 1376 1376 1376 1376 1376 1376 1376 1376 1376 1376
1372 1373 1374 1375 1376 1377 1378 1379 1379 1380 1380 1380 1380 1380 1380 1380 1380 1380 1380 1379 1379 1379 1379 1378 1377 1377 1376 1375 1375 1375 1374 1374 1374 1374 1374 1374 1374 1374 1374 1374 1374 1374 1374
1369 1370 1371 1372 1373 1374 1375 1375 1376 1376 1377 1377 1377 1377 1377 1377 1377 1377 1377 1377 1376 1376 1376 1375 1375 1374 1373 1373 1373 1372 1372 1372 1371 1371 1371 1372 1372 1372 1372 1372 1372 1373 1372
1367 1368 1369 1370 1370 1371 1372 1372 1373 1373 1373 1374 1374 1374 1374 1374 1374 1374 1374 1374 1373 1373 1373 1372 1372 1371 1371 1371 1370 1370 1370 1370 1369 1370 1370 1370 1370 1370 1370 1370 1370 1370 1370